[[{"header":{"parameterUnit":"m.s-1","parameterCategory":2,"la1":30.2992,"la2":30.254,"lo1":-89.0895,"lo2":-89.0443,"dy":0.0025,"dx":0.0025,"nx":19,"ny":19,"refTime":"2026-04-30T03:00:00:Z","depth":"0","parameterNumber":2,"parameterNumberName":"U-component_of_CURRENTS"},"data":[0,0,0,0.265,0.2652,0.2763,0.2764,0.2944,0.2945,0,0,0,0,0,0,0,0,0,0,0,0.2608,0.2608,0.265,0.2653,0.2763,0.2764,0.2943,0.2945,0,0,0,0,0,0,0,0,0,0,0,0.2607,0.2608,0.2609,0.2653,0.2763,0.2764,0.2943,0.2851,0,0,0,0,0,0,0,0,0,0,0.2739,0.2687,0.2608,0.2609,0.2654,0.2763,0.2764,0.2846,0.2857,0.2903,0,0.2916,0,0.2937,0.2958,0.2958,0,0,0,0.2657,0.2678,0.2714,0.2609,0.2655,0.2763,0.2714,0.2852,0.2864,0.2917,0.2918,0.2925,0.294,0.2959,0.296,0.3161,0.3161,0,0,0.2651,0.2627,0.2706,0.2721,0.268,0.2711,0.2718,0.2859,0.2867,0.2919,0.2929,0.2943,0.296,0.2962,0.316,0.3161,0,0,0,0.263,0.2622,0.2654,0.2714,0.2733,0.2714,0.2722,0.2861,0.2873,0.2931,0.2945,0.2961,0.2964,0.3159,0.316,0.3209,0,0,0,0.2627,0.261,0.2651,0.2637,0.2729,0.2792,0.2721,0.2863,0.2879,0.2944,0.2961,0.2965,0.3158,0.316,0.3206,0.319,0,0,0,0.2603,0.2608,0.262,0.2636,0.2683,0.279,0.281,0.2866,0.2888,0.2959,0.2966,0.3158,0.3159,0.3203,0.3186,0.3244,0,0,0,0.2575,0.2594,0.2619,0.2657,0.2682,0.2781,0.2809,0.288,0.2938,0.2962,0.3158,0.316,0.3202,0.3184,0.3241,0.3203,0.3212,0,0,0.2583,0.2594,0.262,0.2646,0.2727,0.2766,0.2882,0.2956,0.2987,0.3113,0.3118,0.3207,0.3186,0.3243,0.3313,0.3318,0,0,0,0.2614,0.2625,0.2659,0.271,0.2789,0.2876,0.2956,0.3019,0.3133,0.3031,0.3232,0.3217,0.3252,0.3224,0.323,0.3229,0.3169,0.3169,0.3169,0.2564,0.2623,0.2671,0.2755,0.2829,0.2963,0.3052,0.3154,0.3189,0.3251,0.3277,0.3375,0.3348,0.3351,0.3353,0.332,0.332,0.3321,0.3321,0.2565,0.2583,0.2672,0.2735,0.2848,0.2949,0.3152,0.3213,0.3379,0.3365,0.3398,0.3301,0.3359,0.3359,0.3324,0.3324,0.3323,0.3323,0.3323,0.2511,0.2526,0.2576,0.267,0.2772,0.2927,0.3071,0.3235,0.3378,0.3442,0.3423,0.3422,0.3402,0.3471,0.3471,0.3471,0.3472,0.3472,0.3472,0.2421,0.2477,0.2499,0.2605,0.2651,0.2779,0.3029,0.3168,0.3364,0.3453,0.3454,0.3438,0.342,0.3392,0.3475,0.3475,0.3474,0.3474,0.3474,0.2328,0.236,0.2386,0.2424,0.2547,0.2616,0.2868,0.3123,0.3297,0.3379,0.3482,0.3478,0.3454,0.3449,0.3422,0.3508,0.3508,0.3508,0.3508,0.2234,0.2268,0.2269,0.2309,0.24,0.2538,0.2659,0.2939,0.3285,0.342,0.3498,0.3459,0.3458,0.3432,0.3427,0.3399,0.3477,0.3477,0.3477,0.215,0.2178,0.2136,0.2214,0.2318,0.2427,0.2492,0.2684,0.3188,0.3478,0.3512,0.3513,0.3457,0.3455,0.3411,0.3404,0.3357,0,0]},{"header":{"parameterUnit":"m.s-1","parameterCategory":2,"la1":30.2992,"la2":30.254,"lo1":-89.0895,"lo2":-89.0443,"dy":0.0025,"dx":0.0025,"nx":19,"ny":19,"refTime":"2026-04-30T03:00:00:Z","depth":"0","parameterNumber":3,"parameterNumberName":"V-component_of_CURRENTS"},"data":[0,0,0,0.0666,0.0666,0.0665,0.0665,0.0622,0.0621,0,0,0,0,0,0,0,0,0,0,0,0.0671,0.0671,0.0666,0.0666,0.0665,0.0665,0.0622,0.0621,0,0,0,0,0,0,0,0,0,0,0,0.0671,0.0671,0.0671,0.0666,0.0665,0.0665,0.0622,0.0635,0,0,0,0,0,0,0,0,0,0,0.0642,0.066,0.0671,0.0671,0.0666,0.0665,0.0665,0.0636,0.0634,0.0607,0,0.0605,0,0.0605,0.0616,0.0616,0,0,0,0.0674,0.0662,0.0648,0.067,0.0665,0.0665,0.0668,0.0636,0.0633,0.0604,0.0605,0.0603,0.0604,0.0616,0.0616,0.0676,0.0677,0,0,0.0674,0.0683,0.065,0.0646,0.0661,0.0668,0.0667,0.0635,0.0637,0.0605,0.0602,0.0603,0.0615,0.0615,0.0674,0.0676,0,0,0,0.0669,0.0683,0.0671,0.0648,0.0647,0.0667,0.0667,0.064,0.0631,0.0602,0.0603,0.0615,0.0614,0.0673,0.0675,0.0782,0,0,0,0.0669,0.0679,0.0671,0.0678,0.0648,0.0651,0.0673,0.0634,0.063,0.0603,0.0615,0.0614,0.0672,0.0674,0.0776,0.0857,0,0,0,0.0671,0.068,0.0675,0.0679,0.0672,0.0652,0.0644,0.0634,0.063,0.0616,0.0613,0.0671,0.0674,0.0771,0.0847,0.0893,0,0,0,0.0686,0.0706,0.0676,0.0711,0.0672,0.0711,0.0644,0.0665,0.0663,0.0615,0.0672,0.0675,0.0769,0.0841,0.0888,0.0913,0.0941,0,0,0.0724,0.0711,0.0736,0.0709,0.0765,0.0712,0.0789,0.0746,0.0697,0.0677,0.0679,0.0778,0.0846,0.0892,0.1075,0.1097,0,0,0,0.0758,0.0776,0.0788,0.0813,0.0818,0.086,0.0817,0.0807,0.0811,0.0705,0.0805,0.0846,0.087,0.0875,0.0894,0.0684,0.0688,0.0687,0.0687,0.0809,0.083,0.0887,0.0915,0.0948,0.0963,0.0997,0.098,0.0896,0.0927,0.0952,0.1092,0.1101,0.1114,0.0898,0.0955,0.0955,0.0955,0.0956,0.0881,0.0925,0.0968,0.1029,0.1072,0.1129,0.1166,0.1137,0.1172,0.1088,0.1103,0.1013,0.1141,0.0903,0.0963,0.0962,0.0961,0.096,0.096,0.0911,0.0943,0.0978,0.1081,0.1183,0.1234,0.1363,0.1351,0.1295,0.1333,0.1288,0.1285,0.1056,0.1315,0.1316,0.1316,0.1317,0.1317,0.1318,0.0927,0.0973,0.1051,0.1149,0.123,0.1361,0.1471,0.1521,0.1511,0.1444,0.1443,0.1098,0.1201,0.1165,0.1327,0.1325,0.1324,0.1323,0.1323,0.0979,0.1003,0.1104,0.1188,0.1387,0.157,0.1649,0.1734,0.1731,0.1721,0.1298,0.1482,0.1449,0.1432,0.1402,0.1616,0.1616,0.1616,0.1616,0.1008,0.1035,0.1172,0.1316,0.1514,0.1678,0.1896,0.1917,0.1642,0.1437,0.1298,0.1183,0.118,0.1121,0.1112,0.1071,0.1195,0.1194,0.1193,0.105,0.1087,0.1184,0.1333,0.1576,0.1812,0.201,0.2024,0.1526,0.115,0.1003,0.1021,0.0818,0.0831,0.0708,0.0711,0.0632,0,0]}],[{"header":{"parameterUnit":"m.s-1","parameterCategory":2,"la1":30.2992,"la2":30.254,"lo1":-89.0895,"lo2":-89.0443,"dy":0.0025,"dx":0.0025,"nx":19,"ny":19,"refTime":"2026-04-30T03:00:00:Z","depth":"2","parameterNumber":2,"parameterNumberName":"U-component_of_CURRENTS"},"data":[0,0,0,0.2572,0.2574,0.2679,0.268,0.2832,0.2833,0,0,0,0,0,0,0,0,0,0,0,0.2557,0.2558,0.2572,0.2574,0.2679,0.268,0.2832,0.2834,0,0,0,0,0,0,0,0,0,0,0,0.2557,0.2558,0.2559,0.2574,0.2679,0.268,0.2832,0.2754,0,0,0,0,0,0,0,0,0,0,0.2653,0.2616,0.2557,0.2559,0.2574,0.2678,0.268,0.2751,0.2759,0.2782,0,0.2798,0,0.2799,0.2842,0.2842,0,0,0,0.26,0.2609,0.2639,0.2559,0.2575,0.2678,0.2639,0.2756,0.2765,0.2793,0.28,0.2805,0.2801,0.2842,0.2843,0.2971,0.2971,0,0,0.2595,0.2576,0.2633,0.2645,0.2603,0.2635,0.2642,0.2761,0.2771,0.2801,0.2808,0.2804,0.2843,0.2844,0.297,0.2971,0,0,0,0.256,0.2572,0.26,0.264,0.2646,0.2638,0.2645,0.2766,0.2776,0.281,0.2806,0.2844,0.2845,0.297,0.2971,0.3052,0,0,0,0.2558,0.255,0.2598,0.2588,0.2643,0.27,0.2647,0.2769,0.2781,0.2805,0.2844,0.2847,0.2969,0.297,0.3049,0.3039,0,0,0,0.2552,0.2549,0.2562,0.2587,0.2618,0.2698,0.2716,0.2772,0.2777,0.2842,0.2847,0.2969,0.297,0.3046,0.3036,0.3089,0,0,0,0.2529,0.2546,0.2562,0.2592,0.2616,0.2699,0.2716,0.2772,0.2826,0.2845,0.2969,0.297,0.3045,0.3033,0.3087,0.2955,0.2958,0,0,0.2534,0.2546,0.2567,0.2583,0.2631,0.2686,0.2779,0.2839,0.2853,0.2935,0.2938,0.305,0.3035,0.3089,0.3022,0.3022,0,0,0,0.2559,0.2563,0.2587,0.2619,0.2686,0.2777,0.2838,0.2893,0.2987,0.2885,0.305,0.3037,0.3069,0.2984,0.2985,0.2976,0.2976,0.2976,0.2976,0.2504,0.2551,0.2584,0.2656,0.2724,0.2839,0.2921,0.3004,0.3031,0.3087,0.3107,0.3198,0.311,0.3108,0.3132,0.3133,0.3133,0.3133,0.3134,0.2469,0.2481,0.2571,0.2617,0.2742,0.2842,0.3018,0.3069,0.3204,0.3199,0.3229,0.3076,0.3113,0.314,0.3139,0.3138,0.3137,0.3137,0.3136,0.2391,0.241,0.2458,0.2544,0.2677,0.2837,0.2961,0.3108,0.3228,0.3279,0.3201,0.3197,0.3234,0.3325,0.3325,0.3326,0.3326,0.3326,0.3326,0.2283,0.2341,0.2376,0.2485,0.2559,0.2696,0.295,0.3056,0.3199,0.3242,0.3242,0.3262,0.3256,0.3243,0.333,0.3329,0.3329,0.3328,0.3328,0.2185,0.223,0.224,0.2299,0.246,0.2529,0.277,0.2952,0.3101,0.3131,0.3222,0.3223,0.3175,0.3172,0.3157,0.3216,0.3216,0.3215,0.3215,0.2106,0.2142,0.2135,0.2196,0.2297,0.2448,0.2484,0.2577,0.2808,0.285,0.2865,0.2779,0.2793,0.2718,0.2725,0.2698,0.2638,0.2636,0.2635,0.2047,0.2043,0.2013,0.2097,0.2222,0.2325,0.2267,0.218,0.2353,0.2607,0.2711,0.3187,0.3101,0.3106,0.3021,0.3021,0.299,0,0]},{"header":{"parameterUnit":"m.s-1","parameterCategory":2,"la1":30.2992,"la2":30.254,"lo1":-89.0895,"lo2":-89.0443,"dy":0.0025,"dx":0.0025,"nx":19,"ny":19,"refTime":"2026-04-30T03:00:00:Z","depth":"2","parameterNumber":3,"parameterNumberName":"V-component_of_CURRENTS"},"data":[0,0,0,0.0214,0.0211,0.0245,0.0246,0.0277,0.0276,0,0,0,0,0,0,0,0,0,0,0,0.0304,0.0305,0.0214,0.0211,0.0245,0.0247,0.0277,0.0276,0,0,0,0,0,0,0,0,0,0,0,0.0304,0.0305,0.0305,0.0211,0.0245,0.0247,0.0277,0.0278,0,0,0,0,0,0,0,0,0,0,0.0257,0.0314,0.0305,0.0305,0.021,0.0244,0.0247,0.028,0.0278,0.0227,0,0.0244,0,0.0168,0.0269,0.0268,0,0,0,0.0309,0.0316,0.028,0.0305,0.0209,0.0244,0.0258,0.028,0.0278,0.0224,0.0243,0.0241,0.0169,0.0268,0.0267,0.0185,0.0185,0,0,0.0307,0.0349,0.0282,0.0279,0.0229,0.0256,0.0257,0.028,0.0307,0.0243,0.024,0.0169,0.0267,0.0266,0.0185,0.0185,0,0,0,0.0236,0.0348,0.0317,0.0281,0.0236,0.0254,0.0256,0.0311,0.0288,0.0239,0.017,0.0267,0.0265,0.0185,0.0185,0.0378,0,0,0,0.024,0.0296,0.0316,0.0347,0.0236,0.0268,0.0287,0.0292,0.0286,0.017,0.0267,0.0264,0.0185,0.0185,0.0373,0.0444,0,0,0,0.0301,0.0301,0.0302,0.0348,0.03,0.0266,0.0252,0.0292,0.0237,0.0268,0.0264,0.0185,0.0185,0.0368,0.0435,0.0426,0,0,0,0.0348,0.0361,0.0306,0.0317,0.0299,0.0285,0.0252,0.0262,0.0295,0.0266,0.0185,0.0185,0.0367,0.043,0.0422,0.0308,0.0317,0,0,0.0376,0.0367,0.037,0.0315,0.031,0.0287,0.0328,0.0344,0.0269,0.0193,0.0193,0.0375,0.0435,0.0425,0.0295,0.0305,0,0,0,0.0384,0.0406,0.0396,0.0386,0.0343,0.0416,0.0371,0.0353,0.0361,0.026,0.0315,0.0345,0.0334,0.0255,0.0262,0.0184,0.0184,0.0184,0.0184,0.0499,0.0465,0.0483,0.0473,0.049,0.0481,0.0514,0.0473,0.0403,0.0424,0.0461,0.0526,0.0444,0.0448,0.0416,0.0416,0.0417,0.0418,0.0418,0.052,0.0523,0.0547,0.0549,0.0609,0.0672,0.0668,0.0654,0.0615,0.0577,0.0556,0.041,0.0468,0.0432,0.0429,0.0427,0.0426,0.0425,0.0424,0.0557,0.0554,0.057,0.0618,0.0757,0.0816,0.0893,0.0872,0.0769,0.0773,0.0607,0.0601,0.0637,0.077,0.077,0.077,0.0771,0.0771,0.0771,0.0564,0.0583,0.0657,0.0728,0.0823,0.0954,0.1065,0.1044,0.0922,0.0771,0.0768,0.0642,0.063,0.0651,0.0776,0.0775,0.0774,0.0774,0.0774,0.0584,0.065,0.0715,0.08,0.0976,0.1127,0.1191,0.1105,0.1026,0.09,0.071,0.0709,0.0613,0.0602,0.0618,0.0727,0.0727,0.0727,0.0726,0.0627,0.0662,0.0789,0.0914,0.1046,0.1188,0.1269,0.1153,0.0898,0.0692,0.0694,0.0627,0.0627,0.0527,0.0518,0.0529,0.0615,0.0615,0.0616,0.0657,0.0687,0.0796,0.0926,0.1079,0.1243,0.1337,0.1224,0.0799,0.0619,0.0754,0.0704,0.0604,0.0607,0.0443,0.0433,0.0446,0,0]}],[{"header":{"parameterUnit":"m.s-1","parameterCategory":2,"la1":30.2992,"la2":30.254,"lo1":-89.0895,"lo2":-89.0443,"dy":0.0025,"dx":0.0025,"nx":19,"ny":19,"refTime":"2026-04-30T03:00:00:Z","depth":"4","parameterNumber":2,"parameterNumberName":"U-component_of_CURRENTS"},"data":[0,0,0,0.0932,0.0934,0.1048,0.1048,0.1102,0.1102,0,0,0,0,0,0,0,0,0,0,0,0.0918,0.0919,0.0932,0.0934,0.1048,0.1048,0.1102,0.1102,0,0,0,0,0,0,0,0,0,0,0,0.0917,0.0919,0.092,0.0934,0.1047,0.1048,0.1102,0.1045,0,0,0,0,0,0,0,0,0,0,0.0948,0.0931,0.0918,0.092,0.0935,0.1047,0.1049,0.1043,0.1048,0.1018,0,0.1045,0,0.1051,0.1102,0.1102,0,0,0,0.0957,0.0927,0.0958,0.092,0.0936,0.1047,0.1003,0.1047,0.1052,0.1024,0.1045,0.1047,0.1052,0.1102,0.1102,0.1177,0.1178,0,0,0.095,0.0935,0.0954,0.0961,0.0975,0.0999,0.1006,0.1052,0.1058,0.1046,0.1049,0.1053,0.1101,0.1101,0.1176,0.1177,0,0,0,0.0917,0.093,0.0963,0.0959,0.0974,0.1002,0.101,0.1057,0.1069,0.1049,0.1054,0.1101,0.1101,0.1175,0.1176,0.1197,0,0,0,0.0915,0.0909,0.096,0.0951,0.0974,0.1025,0.1014,0.1067,0.1072,0.1053,0.1101,0.1101,0.1174,0.1176,0.1195,0.1253,0,0,0,0.0911,0.0907,0.0925,0.095,0.0986,0.1025,0.1041,0.1069,0.1071,0.1102,0.1101,0.1173,0.1175,0.1192,0.1247,0.1284,0,0,0,0.0885,0.0907,0.0925,0.0946,0.0985,0.1043,0.1042,0.1098,0.113,0.1101,0.1174,0.1176,0.1192,0.1244,0.1281,0.1116,0,0,0,0.0892,0.0907,0.0917,0.0935,0.0979,0.1029,0.1088,0.1135,0.115,0.1153,0.1157,0.1196,0.1247,0.1284,0.1243,0,0,0,0,0.0904,0.0915,0.093,0.0962,0.1009,0.1085,0.1129,0.1155,0.1217,0.1174,0.1233,0.1267,0.1288,0.1184,0.1187,0.1186,0.1186,0.1186,0.1186,0.0926,0.0935,0.0958,0.099,0.1036,0.113,0.1198,0.1251,0.1234,0.1284,0.1309,0.1395,0.1287,0.1312,0.1313,0.1313,0.1313,0.1313,0.1313,0.0937,0.0932,0.0978,0.1003,0.1086,0.1157,0.1258,0.1296,0.1396,0.1369,0.1386,0.1246,0.1316,0.1316,0.1315,0.1315,0.1314,0.1314,0.1314,0.0932,0.092,0.097,0.1018,0.1111,0.1194,0.1292,0.1376,0.1445,0.1499,0.1392,0.1438,0.1407,0.15,0.15,0.1501,0.1501,0.1502,0.1502,0.0894,0.0934,0.0973,0.1028,0.1061,0.1156,0.1327,0.1404,0.1495,0.1455,0.1529,0.1459,0.1453,0.1421,0.1508,0.1507,0.1506,0.1506,0.1505,0.0827,0.0896,0.0918,0.0954,0.1016,0.1053,0.1235,0.137,0.1447,0.1476,0.1413,0.1415,0.1403,0.1399,0.1363,0.1438,0.1436,0.1434,0,0.0791,0.0824,0.0879,0.0906,0.0905,0.0989,0.1065,0.1205,0.1313,0.1244,0.143,0.1349,0.1352,0.1328,0.1322,0.1274,0,0,0,0.076,0.0783,0.0805,0.0862,0.0833,0.093,0.108,0.1099,0.1282,0.1362,0.139,0.1402,0.1488,0.1528,0.1518,0.151,0.1458,0,0]},{"header":{"parameterUnit":"m.s-1","parameterCategory":2,"la1":30.2992,"la2":30.254,"lo1":-89.0895,"lo2":-89.0443,"dy":0.0025,"dx":0.0025,"nx":19,"ny":19,"refTime":"2026-04-30T03:00:00:Z","depth":"4","parameterNumber":3,"parameterNumberName":"V-component_of_CURRENTS"},"data":[0,0,0,-0.0282,-0.0284,-0.0372,-0.0372,-0.0434,-0.0435,0,0,0,0,0,0,0,0,0,0,0,-0.0257,-0.0257,-0.0282,-0.0284,-0.0372,-0.0372,-0.0434,-0.0435,0,0,0,0,0,0,0,0,0,0,0,-0.0256,-0.0257,-0.0258,-0.0284,-0.0372,-0.0372,-0.0434,-0.0383,0,0,0,0,0,0,0,0,0,0,-0.0305,-0.0275,-0.0257,-0.0258,-0.0285,-0.0372,-0.0372,-0.0381,-0.0386,-0.0377,0,-0.0391,0,-0.0407,-0.0437,-0.0437,0,0,0,-0.0294,-0.0271,-0.0301,-0.0258,-0.0285,-0.0371,-0.0335,-0.0384,-0.039,-0.0383,-0.0392,-0.0394,-0.0408,-0.0437,-0.0437,-0.0503,-0.0503,0,0,-0.0289,-0.0266,-0.0298,-0.0305,-0.0307,-0.0332,-0.0338,-0.0388,-0.0388,-0.0392,-0.0396,-0.0409,-0.0437,-0.0437,-0.0502,-0.0503,0,0,0,-0.0269,-0.0262,-0.0293,-0.0302,-0.0318,-0.0335,-0.0341,-0.0386,-0.0398,-0.0397,-0.0409,-0.0437,-0.0438,-0.0502,-0.0502,-0.0436,0,0,0,-0.0266,-0.025,-0.029,-0.0276,-0.0317,-0.0357,-0.0337,-0.0395,-0.0401,-0.0409,-0.0437,-0.0438,-0.0501,-0.0502,-0.0437,-0.0411,0,0,0,-0.0253,-0.0248,-0.026,-0.0275,-0.0309,-0.0357,-0.0373,-0.0398,-0.0408,-0.0437,-0.0438,-0.0501,-0.0502,-0.0437,-0.0412,-0.0387,0,0,0,-0.0224,-0.0235,-0.0259,-0.0265,-0.0308,-0.0341,-0.0373,-0.0407,-0.0432,-0.0437,-0.0501,-0.0502,-0.0438,-0.0413,-0.0389,-0.0269,0,0,0,-0.0221,-0.0233,-0.0235,-0.0259,-0.0272,-0.033,-0.0346,-0.0399,-0.0448,-0.0481,-0.0483,-0.0437,-0.0413,-0.0388,-0.034,0,0,0,0,-0.0222,-0.0221,-0.0229,-0.0241,-0.0276,-0.0305,-0.0364,-0.0395,-0.0454,-0.0467,-0.0479,-0.0467,-0.0452,-0.0389,-0.0508,-0.0508,-0.0508,-0.0508,-0.0507,-0.0176,-0.0194,-0.0192,-0.0218,-0.0235,-0.0295,-0.0329,-0.0391,-0.0427,-0.0462,-0.0444,-0.0424,-0.0359,-0.048,-0.048,-0.048,-0.0479,-0.0479,-0.0479,-0.0149,-0.0148,-0.0158,-0.0166,-0.0197,-0.0219,-0.0288,-0.0335,-0.0388,-0.0432,-0.042,-0.0364,-0.0474,-0.0475,-0.0475,-0.0476,-0.0477,-0.0477,-0.0477,-0.0119,-0.0124,-0.0128,-0.0127,-0.0133,-0.0175,-0.0166,-0.0243,-0.0331,-0.0338,-0.0279,-0.0389,-0.0358,-0.0328,-0.0327,-0.0327,-0.0327,-0.0327,-0.0327,-0.0094,-0.0098,-0.0081,-0.0083,-0.0072,-0.006,-0.01,-0.0114,-0.0196,-0.0205,-0.0319,-0.0374,-0.0379,-0.0352,-0.0323,-0.0324,-0.0324,-0.0325,-0.0325,-0.0058,-0.0066,-0.0031,-0.0013,0.0028,0.0052,0.0026,0.0026,0.0014,-0.0012,-0.0138,-0.0148,-0.016,-0.0171,-0.0137,-0.0043,-0.0041,-0.004,0,-0.0032,-0.0034,0.0026,0.0076,0.0138,0.0125,0.0189,0.0169,0.0066,0.0063,-0.0029,-0.0173,-0.018,-0.0197,-0.0204,-0.0164,0,0,0,0.0004,0.0016,0.0074,0.0113,0.0186,0.0217,0.0212,0.0217,0.0076,0.0123,0.0003,-0.0008,-0.0149,-0.0313,-0.0357,-0.0363,-0.0322,0,0]}]]